Погода Балкашино

Погода Балкашино : погода сейчас, прогноз погоды и архив. Всё, что Вы хотите узнать о погоде Балкашино!

Поиск расширенной информации на нашем сайте:

Другие новости

Новости СМИ2

Главная страница сайта

Новости сайта

03.07.2017

Напоминаем, что на нашем специализированном сайте Метеоцентр.Азия вы можете получить высокодетализированные автоматические прогнозы погоды по пунктам России, СНГ и мира в авиационном формате (включающие направление и скорость ветра, видимость, явления погоды, количество и форму облачности, нижнюю и верхнюю границу облачности).


Погода Балкашино - сегодня

Время (UTC), дата Ветер
(°,м/с) 
Видим.   Явления Облачность Т
(°С)
Тd
(°С)
f(%) Тe
(°С)
Pmin
(гПа)
dP
(гПа)
Po
(мм)
O2
(г/м3)
Тmin Tmax R s Состояние
почвы
00 15.06.18 220 (ЮЗ) 20000 м    9/9 600 м 
[Sc]
+14.4 +5.5 55 +15  1008.7  -0.5  722  275           
06 15.06.18 300 (СЗ) 20000 м    9/8 600 м верхняя 
[Cu med, cong|Ci fib]
+22.7 +11.2 48 +26  1006.4  -0.2  721  266  +13         
09 15.06.18 290 (З) 20000 м    9/8 600 м верхняя 
[Cu med, cong|Ci sp]
+22.4 +8.8 42 +23  1006.5  721  267           
12 15.06.18 290 (З) 20000 м    10/6 600 м средняя 
[Cu med, cong|Ac As]
+21.6 +7.6 40 +22  1006.6  721  268           
15 15.06.18 330 (СЗ) 20000 м    10/8 600 м средняя 
[Sc|Ac As]
+18.2 +9 55 +20  1008  0.9  722  271    +23.7       
18 15.06.18 330 (СЗ) н/о    10/6 600 м средняя 
[Sc|Ac As]
+13.2 +6.9 66 +13  1010.3  1.3  723  277    +23.7       
21 15.06.18 тихо ()   н/о    10/0 средняя, верхняя 
[Ac lent|Cs]
+9.4 +6.7 83 +9  1010.7  -0.2  723  280           
00 16.06.18 тихо ()   20000 м    9/4 1000 м средняя, верхняя 
[Sc|Ac trans|Ci fib]
+9.4 +5.5 77 +9  1010.7  723  281           
06 16.06.18 180 (Ю) 20000 м    9/6 600 м кучево-дожд., средняя 
[Cb cap|Ac lent]
+16.7 +4.7 45 +18  1009.2  -0.7  722  274  +7.4         
09 16.06.18 170 (Ю) 20000 м    10/10 600 м кучево-дожд. 
[Cb cap]
+16.7 +3.6 42 +17  1007.7  -1.4  721  273           
21 16.06.18 180 (Ю) н/о    6/6 600 м 
[Sc]
+8.4 +5.8 84 +9  1006.1  -0.8  719  280           
00 17.06.18 230 (ЮЗ) 20000 м    9/6 600 м средняя 
[Sc|Ac As]
+8.8 +5.3 79 +9  1005.8  -0.3  719  280           
06 17.06.18 320 (СЗ) 20000 м    9/8 600 м верхняя 
[Cu med, cong|Ci fib]
+15.2 +4 47 +15  1004.6  -0.4  719  274  +6.7         
09 17.06.18 310 (СЗ) 20000 м    9/9 600 м 
[Cu med, cong]
+15.6 +1.9 40 +16  1004.5  -0.1  719  274           
12 17.06.18 280 (З) 20000 м    9/9 600 м 
[Cu med, cong]
+16.4 +1.6 37 +17  1004.1  -0.2  719  273           
15 17.06.18 290 (З) 20000 м    8/6 600 м верхняя 
[Cu hum|Ci fib]
+13.7 +3.5 50 +15  1004.4  -0.1  719  275    +17.8       
18 17.06.18 290 (З) н/о    6/4 600 м верхняя 
[Sc|Cs]
+6.6 +2.3 74 +6  1006.1  0.4  719  282    +17.8       
21 17.06.18 тихо ()   н/о    8/4 600 м верхняя 
[Sc|Cs]
+2.6 +0.2 84 +3  1006.3  -0.5  719  287           
00 18.06.18 300 (СЗ) 20000 м    8/6 600 м верхняя 
[Sc|Ci fib]
+2 -0.7 82 +3  1006.2  -0.2  719  287           
06 18.06.18 230 (ЮЗ) 20000 м    8/6 600 м верхняя 
[Cu hum|Ci fib]
+17 +2.6 38 +17  1001.9  -1.1  717  272  +1.3         
09 18.06.18 240 (ЮЗ) 20000 м    9/9 600 м 
[Cu hum]
+19.6 +3.8 35 +20  1000.6  -0.9  717  269           
12 18.06.18 270 (З) 20000 м    8/8 600 м верхняя 
[Cu hum|Ci fib]
+19.8 +3.8 35 +21  1000.1  -0.4  716  268           
15 18.06.18 300 (СЗ) 20000 м    4/1 1000 м верхняя 
[Sc diur, vesp|Ci fib]
+17.8 +2.7 36 +18  1000.1  -0.3  716  270    +19.9       
18 18.06.18 310 (СЗ) н/о    4/3 600 м верхняя 
[Sc|Ci fib]
+12 +5.2 63 +12  1000.6  -0.4  716  275    +19.9       
21 18.06.18 300 (СЗ) н/о    10/10 600 м кучево-дожд. 
[Cb cap]
+10.2 +7.3 82 +11  1000.7  -0.2  716  277           
Время (UTC), дата Ветер
(°,м/с) 
Видим.   Явления Облачность Т
(°С)
Тd
(°С)
f(%) Тe
(°С)
Pmin
(гПа)
dP
(гПа)
Po
(мм)
O2
(г/м3)
Тmin Tmax R s Состояние
почвы

Для получения пояснительной информации подведите курсор к названию столбца.

ПОГОДА Балкашино - архив

Всё, что Вы хотите узнать о погоде Балкашино - удобно и подробно!

Выберите нужную дату (начиная с 1 января 2015* года) и нажмите кнопку "Найти".
Будут отображены архивные сводки погоды по пункту Балкашино, начиная с указанной даты.


Отображать данные в формате CSV (для использования в таблицах Excel)


Внимание! Наш архив погоды предназначен исключительно для личного некоммерческого использования в познавательных целях. Если Вам необходимы официальные справки о состоянии погоды (для производственных, юридических, коммерческих и т.п. целей), обращайтесь в органы Росгидромета.

*Примечание: данная дата относится к архиву по метеостанциям СССР (Россия, СНГ, Балтия).
Архив по метеостанциям Зарубежной Европы и Азии (кроме Китая) хранится 10 дней, по другим регионам земного шара (Китай, Африка, Америка, Австралия, Океания) - 1 день.

Балкашино - район местоположения метеостанции


Название, широта, долгота, высота метеостанции:
Балкашино 52.5°ш. 68.8°д. 398 м над ур. моря [Казахстан]

Дополнительная информация

В oтличие oт бoльшинства пoгoдных сайтoв мы публикуем пoдрoбную метеoинфoрмацию в детальнoм прoфессиoнальнoм фoрмате.

Характеристики температуры и влажнoсти вoздуха измеряются на высoте 2 м в тени вдали oт зданий и деревьев.
Скoрoсть ветра измеряется на высoте 10 м (на урoвне рoста челoвека скoрoсть ветра ниже в 1.5-2 раза). Если метеoстанция нахoдится в гoрoде или в лесу, тo скoрoсть ветра занижена на 2-4 м/с пo сравнению с oткрытым местoм. Скoрoсть ветра над акватoриями крупных рек и oзёр, а также на вершинах хoлмoв на 2-5 м/с выше, чем в oбычных услoвиях.
Атмoсфернoе давление в разных тoчках местнoсти мoжет значительнo oтличаться oт давления на метеoстанции, в зависимoсти oт услoвий рельефа (при пoдъёме на 10 м давление пoнижается примернo на 1 мм рт.ст.).